Regional Weather Roundup
Issued by NWS

Home | Current Version | Previous Version | Text Only | Print | Product List | Glossary Off
Versions: 1 2 3 4 5 6 7 8 9 10 11 12 13 14 15 16 17 18 19 20 21 22 23 24 25 26 27 28 29 30 31 32 33 34 35 36 37 38 39 40 41 42 43 44 45 46 47 48

975
ASUS45 KCYS 060810
RWRWY

WYOMING REGIONAL WEATHER ROUNDUP
NATIONAL WEATHER SERVICE CHEYENNE WY
100 AM MST SAT FEB 06 2016

NOTE:  "FAIR" INDICATES FEW OR NO CLOUDS BELOW 12,000 FEET
WITH NO SIGNIFICANT WEATHER AND/OR OBSTRUCTIONS TO VISIBILITY.

WYZ001-060900-
YELLOWSTONE NATIONAL PARK

CITY           SKY/WX    TMP DP  RH WIND       PRES   REMARKS
LK YELLOWSTONE   N/A     19  15  84 CALM      30.35F
W YELLOWSTONE  NOT AVBL

$$
WYZ002>013-054>058-071-098>099-060900-
NORTHERN WYOMING

CITY           SKY/WX    TMP DP  RH WIND       PRES   REMARKS
JACKSON        CLOUDY    16  14  93 N8        30.40F WCI   5
CODY           FAIR      37  16  41 W17G31    30.14F WCI  28
GREYBULL       FAIR      20  14  77 SE7       30.21F WCI  11
WORLAND        FAIR      13  10  88 SW6       30.21F WCI   4
SHERIDAN       FAIR      20  12  71 CALM      30.06F
BUFFALO          N/A     35  14  42 SW6       30.07F WCI  30
GILLETTE       FAIR      28  14  55 SW18      30.08F WCI  15
HULETT         FAIR      30  14  51 SW10      30.09F WCI  21
NEWCASTLE      FAIR      19  12  73 SE7       30.15F WCI  10

$$
WYZ014>020-022>026-101>103-060900-
CENTRAL WYOMING

CITY           SKY/WX    TMP DP  RH WIND       PRES   REMARKS
BIG PINEY      FAIR       5   2  87 CALM      30.37F
PINEDALE       FAIR      16  12  86 NW7       30.36S WCI   6
DUBOIS         FAIR      23  14  68 NW29G36   30.26F WCI   6
LANDER         FAIR      20   9  62 CALM      30.20F
RIVERTON       FAIR      18   9  68 W8        30.22S WCI   8
CASPER         FAIR      22  15  75 SW30G43   30.21F WCI   4
DOUGLAS        FAIR      23  14  68 N7          N/A  WCI  15

$$
WYZ021-027>030-104>119-060900-
SOUTHERN WYOMING

CITY           SKY/WX    TMP DP  RH WIND       PRES   REMARKS
EVANSTON       FAIR      14  11  87 SW17      30.42F FOG     WCI  -3
FORT BRIDGER   SUNNY     18  16  93 W13       30.43F WCI   4
ROCK SPRINGS   FAIR      20  14  77 W17       30.37F WCI   5
DIXON          CLOUDY    15  10  82 NW5       30.48S WCI   7
RAWLINS        CLOUDY    21  14  74 SW22G35   30.32F WCI   5
SARATOGA       FAIR      12   5  73 S10       30.37S WCI  -1
LARAMIE        FAIR      19   9  65 SW24G32   30.23F WCI   2
CHEYENNE       FAIR      26  11  52 W17       30.20F WCI  13
TORRINGTON     FAIR      28  16  60 W13       30.19F WCI  17
PINE BLUFFS    FAIR      23  12  63 W13       30.21F WCI  11

$$




USA.gov is the U.S. government's official web portal to all federal, state and local government web resources and services.